TimeCST,TemperatureF,Dew PointF,Humidity,Sea Level PressureIn,VisibilityMPH,Wind Direction,Wind SpeedMPH,Gust SpeedMPH,PrecipitationIn,Events,Conditions,WindDirDegrees,DateUTC
12:15 AM,33.8,28.4,81,30.21,10.0,ENE,11.5,20.7,N/A,,Overcast,60,2012-11-30 06:15:00
12:35 AM,33.8,28.4,81,30.21,10.0,ENE,13.8,18.4,N/A,,Overcast,60,2012-11-30 06:35:00
12:55 AM,33.8,28.4,81,30.21,10.0,NE,13.8,19.6,N/A,,Overcast,50,2012-11-30 06:55:00
1:15 AM,33.8,28.4,81,30.22,10.0,NE,12.7,20.7,N/A,,Overcast,50,2012-11-30 07:15:00
1:35 AM,33.8,28.4,81,30.21,10.0,NE,11.5,23.0,N/A,,Overcast,50,2012-11-30 07:35:00
1:55 AM,33.8,28.4,81,30.21,10.0,NE,13.8,19.6,N/A,,Overcast,50,2012-11-30 07:55:00
2:15 AM,33.8,28.4,81,30.22,10.0,ENE,13.8,19.6,N/A,,Overcast,60,2012-11-30 08:15:00
2:35 AM,33.8,28.4,81,30.21,10.0,ENE,10.4,18.4,N/A,,Overcast,70,2012-11-30 08:35:00
2:55 AM,33.8,28.4,81,30.21,10.0,ENE,11.5,17.3,N/A,,Overcast,60,2012-11-30 08:55:00
3:15 AM,33.8,30.2,87,30.20,10.0,ENE,11.5,18.4,N/A,,Overcast,60,2012-11-30 09:15:00
3:35 AM,33.8,28.4,81,30.20,10.0,ENE,9.2,-,N/A,,Overcast,70,2012-11-30 09:35:00
3:55 AM,33.8,28.4,81,30.19,10.0,ENE,10.4,17.3,N/A,,Overcast,70,2012-11-30 09:55:00
4:15 AM,33.8,28.4,81,30.19,10.0,ENE,17.3,20.7,N/A,,Overcast,70,2012-11-30 10:15:00
4:35 AM,33.8,28.4,81,30.19,10.0,ENE,13.8,19.6,N/A,,Overcast,70,2012-11-30 10:35:00
4:55 AM,33.8,28.4,81,30.19,10.0,East,12.7,17.3,N/A,,Overcast,80,2012-11-30 10:55:00
5:15 AM,33.8,28.4,81,30.19,10.0,ENE,10.4,17.3,N/A,,Overcast,70,2012-11-30 11:15:00
5:35 AM,33.8,28.4,81,30.20,10.0,ENE,10.4,-,N/A,,Overcast,60,2012-11-30 11:35:00
5:55 AM,33.8,28.4,81,30.19,10.0,ENE,10.4,17.3,N/A,,Overcast,60,2012-11-30 11:55:00
6:15 AM,33.8,28.4,81,30.20,10.0,ENE,9.2,16.1,N/A,,Overcast,70,2012-11-30 12:15:00
6:35 AM,33.8,28.4,81,30.20,10.0,ENE,6.9,-,N/A,,Overcast,70,2012-11-30 12:35:00
6:55 AM,33.8,28.4,81,30.21,10.0,ENE,11.5,-,N/A,,Overcast,60,2012-11-30 12:55:00
7:15 AM,33.8,28.4,81,30.22,10.0,ENE,10.4,-,N/A,,Overcast,60,2012-11-30 13:15:00
7:35 AM,33.8,28.4,81,30.22,10.0,ENE,9.2,-,N/A,,Overcast,70,2012-11-30 13:35:00
7:55 AM,33.8,28.4,81,30.23,10.0,ENE,8.1,-,N/A,,Overcast,70,2012-11-30 13:55:00
8:15 AM,33.8,30.2,87,30.23,10.0,ENE,8.1,16.1,N/A,,Overcast,70,2012-11-30 14:15:00
8:35 AM,33.8,30.2,87,30.23,10.0,East,8.1,-,N/A,,Overcast,90,2012-11-30 14:35:00
8:55 AM,33.8,30.2,87,30.23,8.0,East,9.2,16.1,N/A,,Overcast,80,2012-11-30 14:55:00
9:15 AM,33.8,30.2,87,30.23,9.0,East,8.1,-,N/A,,Overcast,80,2012-11-30 15:15:00
9:35 AM,33.8,30.2,87,30.24,10.0,East,8.1,-,N/A,,Overcast,80,2012-11-30 15:35:00
9:55 AM,33.8,30.2,87,30.25,10.0,East,8.1,-,N/A,,Overcast,80,2012-11-30 15:55:00
10:15 AM,33.8,30.2,87,30.24,10.0,ENE,8.1,-,N/A,,Overcast,60,2012-11-30 16:15:00
10:35 AM,33.8,30.2,87,30.23,10.0,East,8.1,-,N/A,,Overcast,80,2012-11-30 16:35:00
10:55 AM,33.8,30.2,87,30.23,10.0,ENE,9.2,-,N/A,,Overcast,70,2012-11-30 16:55:00
11:15 AM,33.8,30.2,87,30.21,10.0,East,9.2,-,N/A,,Overcast,90,2012-11-30 17:15:00
11:35 AM,35.6,30.2,81,30.20,10.0,East,10.4,-,N/A,,Overcast,100,2012-11-30 17:35:00
11:55 AM,35.6,30.2,81,30.21,10.0,East,10.4,-,N/A,,Overcast,80,2012-11-30 17:55:00
12:15 PM,35.6,30.2,81,30.20,10.0,East,8.1,-,N/A,,Overcast,100,2012-11-30 18:15:00
12:35 PM,35.6,30.2,81,30.20,10.0,East,10.4,-,N/A,,Overcast,90,2012-11-30 18:35:00
12:55 PM,35.6,30.2,81,30.22,10.0,East,9.2,-,N/A,,Overcast,80,2012-11-30 18:55:00
1:15 PM,33.8,28.4,81,30.21,10.0,East,8.1,-,N/A,,Overcast,90,2012-11-30 19:15:00
1:35 PM,33.8,28.4,81,30.21,10.0,ENE,9.2,-,N/A,,Overcast,70,2012-11-30 19:35:00
1:55 PM,35.6,28.4,75,30.21,10.0,East,10.4,16.1,N/A,,Overcast,80,2012-11-30 19:55:00
2:15 PM,35.6,28.4,75,30.21,10.0,East,8.1,-,N/A,,Overcast,100,2012-11-30 20:15:00
2:35 PM,35.6,28.4,75,30.20,10.0,East,9.2,-,N/A,,Overcast,90,2012-11-30 20:35:00
2:55 PM,35.6,28.4,75,30.21,10.0,East,8.1,-,N/A,,Overcast,90,2012-11-30 20:55:00
3:15 PM,35.6,28.4,75,30.22,10.0,East,5.8,-,N/A,,Overcast,80,2012-11-30 21:15:00
3:35 PM,35.6,28.4,75,30.23,10.0,ENE,5.8,-,N/A,,Overcast,70,2012-11-30 21:35:00
3:55 PM,35.6,28.4,75,30.23,10.0,ENE,5.8,-,N/A,,Overcast,70,2012-11-30 21:55:00
4:15 PM,35.6,28.4,75,30.25,10.0,NE,5.8,-,N/A,,Overcast,40,2012-11-30 22:15:00
4:35 PM,35.6,28.4,75,30.25,10.0,NE,4.6,-,N/A,,Overcast,50,2012-11-30 22:35:00
4:55 PM,35.6,28.4,75,30.24,10.0,ENE,5.8,-,N/A,,Overcast,70,2012-11-30 22:55:00
5:15 PM,35.6,28.4,75,30.23,10.0,ENE,5.8,-,N/A,,Overcast,70,2012-11-30 23:15:00
5:35 PM,35.6,30.2,81,30.23,10.0,East,5.8,-,N/A,,Overcast,90,2012-11-30 23:35:00
6:15 PM,35.6,30.2,81,30.24,10.0,East,4.6,-,N/A,,Overcast,80,2012-12-01 00:15:00
6:35 PM,35.6,30.2,81,30.24,10.0,East,5.8,-,N/A,,Overcast,80,2012-12-01 00:35:00
6:55 PM,35.6,30.2,81,30.25,10.0,East,4.6,-,N/A,,Overcast,80,2012-12-01 00:55:00
7:15 PM,35.6,30.2,81,30.21,10.0,East,9.2,-,N/A,,Overcast,100,2012-12-01 01:15:00
7:35 PM,35.6,30.2,81,30.22,10.0,East,6.9,-,N/A,,Overcast,100,2012-12-01 01:35:00
8:15 PM,35.6,30.2,81,30.21,10.0,East,8.1,-,N/A,,Overcast,100,2012-12-01 02:15:00
8:35 PM,35.6,32.0,87,30.19,10.0,East,6.9,-,N/A,,Overcast,100,2012-12-01 02:35:00
8:55 PM,35.6,32.0,87,30.20,10.0,ESE,6.9,-,N/A,,Overcast,120,2012-12-01 02:55:00
9:15 PM,37.4,32.0,81,30.19,10.0,SE,9.2,-,N/A,,Overcast,130,2012-12-01 03:15:00
9:35 PM,37.4,32.0,81,30.21,10.0,SE,8.1,-,N/A,,Overcast,140,2012-12-01 03:35:00
9:55 PM,37.4,32.0,81,30.20,10.0,SE,6.9,-,N/A,,Overcast,130,2012-12-01 03:55:00
10:15 PM,37.4,32.0,81,30.21,10.0,SE,5.8,-,N/A,,Overcast,130,2012-12-01 04:15:00
10:35 PM,37.4,32.0,81,30.22,10.0,SE,6.9,-,N/A,,Overcast,140,2012-12-01 04:35:00
10:55 PM,37.4,32.0,81,30.21,9.0,SE,4.6,-,N/A,,Overcast,140,2012-12-01 04:55:00
11:15 PM,37.4,32.0,81,30.22,8.0,SE,5.8,-,N/A,,Overcast,130,2012-12-01 05:15:00
11:35 PM,37.4,33.8,87,30.22,8.0,SE,4.6,-,N/A,,Overcast,140,2012-12-01 05:35:00